Weather in Erechim

Brazil     27°38′23″S   52°16′44″W
temp.,
°C
wind,
m/s
gust,
m/s
humid.,
%
clouds,
%
prec.,
mm/h
press.,
hPa
HPBL,
m
18 may, wed
wed1800:00+5w91897100 1.6 10161258
03:00+6w91797100 3.1 10141195
06:00+7wsw81597100 1.4 10141196
09:00+7wsw71395100 1.6 1017973
12:00+7wsw61295100 0.1 1018826
15:00+7wsw61397100 0.3 1017871
18:00+8sw61296100 0.4 1017955
21:00+9sw5119790 1.1 1019747
19 may, thu
thu1900:00+8ssw4109671 0.3 1019660
03:00+7ssw4796100 0.3 1019471
06:00+7ssw379566 0.0 1019334
09:00+8s4695100 0.0 1021497
12:00+10sw238199 0.0 1021729
15:00+10wsw3484100 0.1 1020363
18:00+8sw22872 0.0 102128
21:00+6sw11845 0.0 102310
20 may, fri
fri2000:00+5ese1187100 0.0 102310
03:00+5ene11928 0.0 102210
06:00+4e22950 0.0 102315
09:00+7ene23870 0.0 1024197
12:00+12ne23700 0.0 1022667
15:00+14nne11620 0.0 1020850
18:00+9e11820 0.0 102010
21:00+7ene11850 0.0 102210
21 may, sat
sat2100:00+7ne11880 0.0 102310
03:00+6ene22910 0.0 102311
06:00+5ne22910 0.0 102411
09:00+9ne22820 0.0 1025137
12:00+15nnw236797 0.0 1024673
15:00+16wnw2263100 0.0 1021968
18:00+11wsw118560 0.0 102210
21:00+9ene118699 0.0 102310
22 may, sun
sun2200:00+9ne1191100 0.0 102310
03:00+7ene119393 0.0 102310
06:00+7ne1193100 0.0 102211
09:00+10ene2387100 0.0 1023138
12:00+14ne237595 0.0 1022398
15:00+16n1265100 0.0 1019722
18:00+11ese11841 0.0 102010
21:00+10nne11890 0.0 102110